Vancleve, KY

4:19 AM EST on February 28, 2017 (GMT -0500)
Carroll

Weather History for KJKL - October, 2011

Change the Weather History Date:

Friday, October 7, 2011

  Actual Average Record
Temperature  
Mean Temperature 67 °F 61 °F  
Max Temperature 80 °F 71 °F 88 °F (2007)
Min Temperature 53 °F 50 °F 33 °F (2001)
Degree Days  
Heating Degree Days 0 6  
Month to date heating degree days 56 37  
Since 1 July heating degree days 119 89  
Cooling Degree Days 2 1  
Month to date cooling degree days 5 13  
Year to date cooling degree days 1243 1134  
Growing Degree Days 16 (Base 50)    
Moisture  
Dew Point 52 °F    
Average Humidity 63    
Maximum Humidity 89    
Minimum Humidity 36    
Precipitation  
Precipitation 0.00 in 0.10 in 1.82 in (2014)
Month to date precipitation T 0.71  
Year to date precipitation 46.10 37.72  
Snow  
Snow 0.00 in 0.00 in - ()
Month to date snowfall 0.0 0.0  
Since 1 July snowfall 0.0 0.0  
Since 1 September snowfall 0.0 0.0  
Snow Depth 0.00 in    
Sea Level Pressure  
Sea Level Pressure 30.33 in    
Wind  
Wind Speed 1 mph (ENE)    
Max Wind Speed 6 mph    
Max Gust Speed 10 mph    
Visibility 10 miles    
Events      
T = Trace of Precipitation, MM = Missing Value Source: NWS Daily Summary

Daily Weather History Graph

Daily Weather History Graph

Search for Another Location

Airport or City:

Trip Planner

Search our weather history database for the weather conditions in past years. The results will help you decide how hot, cold, wet, or windy it might be!

Date:

Astronomy

Oct. 07, 2011 Rise Set
Actual Time 7:33 AM EDT 7:07 PM EDT
Civil Twilight 7:07 AM EDT 7:33 PM EDT
Nautical Twilight 6:37 AM EDT 8:04 PM EDT
Astronomical Twilight 6:06 AM EDT 8:34 PM EDT
Moon 4:46 PM EDT (10/7) 3:26 AM EDT (10/7)
Length of Visible Light 12h 26m
Length of Day
11h 33m
Waxing Gibbous, 83% of the Moon is Illuminated
Oct 7
Waxing Gibbous
Oct 11
Full
Oct 19
Last Quarter
Oct 26
New
Nov 2
First Quarter

Hourly Weather History & Observations

Time (EDT) Temp. Dew Point Humidity Pressure Visibility Wind Dir Wind Speed Gust Speed Precip Events Conditions
12:53 AM 62.1 °F 52.0 °F 70% 30.30 in 10.0 mi Calm Calm - N/A   Clear
1:53 AM 61.0 °F 52.0 °F 72% 30.29 in 10.0 mi Calm Calm - N/A   Clear
2:53 AM 59.0 °F 52.0 °F 78% 30.28 in 10.0 mi Calm Calm - N/A   Clear
3:53 AM 59.0 °F 52.0 °F 78% 30.28 in 10.0 mi Calm Calm - N/A   Clear
4:53 AM 57.0 °F 52.0 °F 83% 30.29 in 10.0 mi Calm Calm - N/A   Clear
5:53 AM 55.9 °F 51.1 °F 84% 30.31 in 10.0 mi Calm Calm - N/A   Clear
6:53 AM 55.9 °F 52.0 °F 87% 30.33 in 10.0 mi East 3.5 mph - N/A   Clear
7:53 AM 53.1 °F 50.0 °F 89% 30.35 in 9.0 mi Calm Calm - N/A   Clear
8:53 AM 57.9 °F 54.0 °F 87% 30.36 in 10.0 mi Calm Calm - N/A   Clear
9:53 AM 61.0 °F 53.1 °F 75% 30.38 in 10.0 mi Calm Calm - N/A   Clear
10:53 AM 66.0 °F 55.0 °F 68% 30.39 in 10.0 mi Calm Calm - N/A   Clear
11:53 AM 72.0 °F 55.9 °F 57% 30.38 in 10.0 mi Calm Calm - N/A   Clear
12:53 PM 73.4 °F 55.4 °F 53% 30.40 in 10.0 mi Calm Calm - N/A   Clear
1:53 PM 77.0 °F 55.0 °F 47% 30.35 in 10.0 mi Variable 4.6 mph - N/A   Clear
2:53 PM 80.1 °F 51.1 °F 36% 30.33 in 10.0 mi Calm Calm - N/A   Clear
3:53 PM 79.0 °F 50.0 °F 36% 30.32 in 10.0 mi Variable 5.8 mph - N/A   Clear
4:53 PM 78.1 °F 52.0 °F 40% 30.31 in 10.0 mi Variable 5.8 mph - N/A   Clear
5:53 PM 77.0 °F 50.0 °F 39% 30.31 in 10.0 mi Variable 4.6 mph - N/A   Clear
6:53 PM 73.9 °F 50.0 °F 43% 30.31 in 10.0 mi Calm Calm - N/A   Clear
7:53 PM 71.1 °F 52.0 °F 51% 30.33 in 10.0 mi Calm Calm - N/A   Clear
8:53 PM 69.1 °F 53.1 °F 57% 30.34 in 10.0 mi Variable 3.5 mph - N/A   Clear
9:53 PM 68.0 °F 53.1 °F 59% 30.35 in 10.0 mi NE 3.5 mph - N/A   Clear
10:53 PM 66.9 °F 52.0 °F 59% 30.35 in 10.0 mi Calm Calm - N/A   Clear
11:53 PM 66.0 °F 52.0 °F 60% 30.34 in 10.0 mi Calm Calm - N/A   Clear